Weather observations for the past three days for
Houston / Ellington
Imperial (Metric)
Date Time (cdt) Wind (mph) Vis. (mi.) Weather Sky Cond. Temperature (ºF) Relative Humidity Wind Chill (°F) Heat Index (°F) Pressure Precipitation (in)
Air Dwpt 6 hour altimeter (in) sea level (mb) 1 hr 3 hr 6 hr
Max. Min.
10 09:54 NE 3 8.00 Mostly Cloudy SCT029 BKN043 78.8 75.2 89% 82 29.95 0.0
10 08:54 NE 3 7.00 Mostly Cloudy SCT034 BKN041 78.8 75.2 89% 82 29.94 0.0
10 07:54 NE 3 6.00 Fog/Mist BKN009 77 75.2 94% 78 29.92 0.0
10 06:54 SE 7 6.00 Fog/Mist BKN009 75.2 73.4 94% 74 29.88 0.0
10 05:54 SE 7 6.00 Fog/Mist BKN009 75.2 73.4 94% 74 29.86 0.0
10 04:54 S 9 6.00 Fog/Mist BKN009 75.2 75.2 100% 73 29.84 0.0
10 03:54 S 5 5.00 Fog/Mist BKN008 73.4 73.4 100% 29.85 0.0
10 02:54 S 3 5.00 Fog/Mist BKN006 73.4 73.4 100% 29.84 0.0
10 01:54 S 3 8.00 Partly Cloudy SCT010 SCT055 73.4 71.6 94% 29.84 0.0
10 00:54 SE 9 8.00 Partly Cloudy SCT010 SCT055 75.2 73.4 94% 74 29.85 0.0
09 23:54 E 13 6.00 Fog/Mist OVC055 75.2 75.2 100% 73 29.86 0.0
09 22:54 SE 8 6.00 Fog/Mist OVC055 75.2 75.2 100% 73 29.87 0.0
09 21:54 NE 10 G 18 6.00 Light Rain OVC055 77 75.2 94% 78 29.88 0.0
09 20:54 E 13 G 20 10.00 Overcast OVC050 80.6 71.6 74% 85 29.82 0.0
09 19:54 SE 9 G 18 10.00 Mostly Cloudy FEW045 SCT075 BKN085 82.4 64.4 55% 84 29.77 0.0
09 18:54 E 10 10.00 Fair CLR 84.2 71.6 66% 90 29.76 0.0
09 17:54 SE 12 10.00 Fair CLR 87.8 73.4 62% 96 29.76 0.0
09 16:54 S 9 10.00 A Few Clouds FEW055 89.6 66.2 46% 92 29.75 0.0
09 15:54 S 6 10.00 Fair CLR 89.6 66.2 46% 92 29.75 0.0
09 14:54 NW 6 10.00 Fair CLR 89.6 66.2 46% 92 29.77 0.0
09 12:54 SW 6 G 13 10.00 Partly Cloudy SCT025 84.2 71.6 66% 90 29.82 0.0
09 11:54 SW 7 10.00 Mostly Cloudy BKN017 82.4 73.4 74% 88 29.83 0.0
09 10:54 Calm 10.00 Partly Cloudy SCT015 80.6 73.4 79% 85 29.83 0.0
09 09:54 SE 7 8.00 Partly Cloudy SCT013 77 75.2 94% 78 29.82 0.0
09 08:54 W 5 6.00 Fog/Mist OVC007 77 75.2 94% 78 29.82 0.0
09 07:54 S 5 2.00 Fog/Mist OVC003 75.2 75.2 100% 73 29.82 0.0
09 06:54 Calm 2.00 Fog/Mist OVC004 75.2 75.2 100% 73 29.82 0.0
09 05:54 Calm 2.00 Fog/Mist BKN004 OVC011 75.2 75.2 100% 73 29.8 0.0
09 04:54 Calm 1.00 Fog/Mist OVC004 75.2 75.2 100% 73 29.81 0.0
09 02:54 Calm 1.00 Fog/Mist OVC005 75.2 75.2 100% 73 29.8 0.0
08 22:54 E 6 4.00 Fog/Mist OVC007 75.2 75.2 100% 73 29.83 0.0
08 21:54 E 6 4.00 Fog/Mist OVC005 75.2 73.4 94% 74 29.81 0.0
08 20:54 E 7 5.00 Fog/Mist OVC007 75.2 73.4 94% 74 29.79 0.0
08 18:54 E 7 5.00 Fog/Mist OVC007 73.4 71.6 94% 29.79 0.0
08 16:54 E 7 6.00 Fog/Mist OVC008 73.4 69.8 89% 29.8 0.0
08 15:54 E 7 7.00 Fog/Mist OVC008 73.4 69.8 89% 29.81 0.0
08 14:54 NE 7 5.00 Fog/Mist OVC006 71.6 69.8 94% 29.84 0.0
08 13:54 E 7 2.00 Drizzle OVC004 69.8 69.8 100% 29.83 0.0
08 12:54 NE 8 1.50 Drizzle OVC003 68 68 100% 29.87 0.0
08 11:54 NE 7 3.00 Drizzle OVC005 68 66.2 94% 29.89 0.0
08 10:54 NE 12 5.00 Fog/Mist OVC005 68 66.2 94% 29.9 0.0
08 09:54 NE 9 3.00 Fog/Mist OVC005 68 66.2 94% 29.9 0.0
08 08:54 NE 5 3.00 Fog/Mist OVC006 68 66.2 94% 29.9 0.0
08 07:54 N 7 5.00 Fog/Mist OVC007 68 64.4 88% 29.91 0.0
08 06:54 N 9 5.00 Fog/Mist OVC006 68 66.2 94% 29.89 0.0
08 05:54 N 6 4.00 Fog/Mist BKN005 OVC009 68 68 100% 29.9 0.0
08 04:54 N 7 2.00 Fog/Mist OVC008 68 68 100% 29.89 0.0
08 03:54 N 7 10.00 Overcast OVC013 71.6 66.2 83% 29.89 0.0
08 02:54 NE 5 10.00 Overcast BKN018 OVC030 71.6 66.2 83% 29.89 0.0
08 01:54 NE 8 10.00 Overcast BKN018 OVC030 71.6 66.2 83% 29.89 0.0
08 00:54 NE 6 10.00 Overcast BKN018 OVC030 73.4 66.2 78% 29.91 0.0
07 23:54 E 8 10.00 Overcast OVC030 73.4 66.2 78% 29.89 0.0
07 22:54 E 7 10.00 Overcast OVC030 73.4 66.2 78% 29.93 0.0
07 21:54 NE 7 10.00 Overcast OVC045 75.2 64.4 69% 77 29.92 0.0
07 20:54 NE 7 10.00 Overcast OVC033 75.2 64.4 69% 77 29.92 0.0
07 19:54 N 12 10.00 Overcast OVC028 77 66.2 69% 79 29.91 0.0
07 18:54 NE 12 10.00 Partly Cloudy SCT028 77 66.2 69% 79 29.9 0.0
07 17:54 N 8 10.00 Partly Cloudy SCT028 77 66.2 69% 79 29.91 0.0
07 16:54 NE 9 G 16 10.00 Partly Cloudy SCT038 78.8 66.2 65% 81 29.9 0.0
07 15:54 N 9 G 17 10.00 Mostly Cloudy BKN028 77 64.4 65% 79 29.92 0.0
07 14:54 N 10 10.00 Overcast OVC030 77 64.4 65% 79 29.94 0.0
07 13:54 N 6 G 14 10.00 Overcast BKN020 OVC030 73.4 62.6 69% 29.96 0.0
07 12:54 N 9 10.00 Overcast OVC020 69.8 60.8 73% 29.98 0.0
07 11:54 N 10 G 16 10.00 Overcast SCT014 OVC018 66.2 59 78% 29.98 0.0
Date Time (cdt) Wind (mph) Vis. (mi.) Weather Sky Cond. Air Dwpt Max. Min. Relative Humidity Wind Chill (°F) Heat Index (°F) altimeter (in) sea level (mb) 1 hr 3 hr 6 hr
6 hour
Temperature (ºF) Pressure Precipitation (in)